| time (UTC) | temp F | wind direction | speed MPH | gust MPH | rain 1hr in | rain 24hr in | rain mn in | humidity % | barometer mb |
| 20260904181538 | 82 | 75 | 0.0 | 1.0 | 0.00 | 0.23 | 0.23 | 68 | 1010.1 |
| 20260904180035 | 80 | 70 | 2.0 | 4.0 | 0.00 | 0.23 | 0.23 | 65 | 1009.9 |
| 20260904174530 | 80 | 37 | 0.0 | 0.0 | 0.00 | 0.23 | 0.23 | 67 | 1010.0 |
| 20260904173030 | 81 | 76 | 0.0 | 1.0 | 0.00 | 0.23 | 0.23 | 65 | 1009.9 |
| 20260904171539 | 79 | 71 | 0.0 | 2.0 | 0.00 | 0.23 | 0.23 | 69 | 1010.0 |
| 20260904170027 | 81 | 36 | 0.0 | 4.0 | 0.00 | 0.23 | 0.23 | 69 | 1010.0 |
| 20260904164526 | 80 | 360 | 0.0 | 4.0 | 0.00 | 0.23 | 0.23 | 71 | 1010.2 |
| 20260904163025 | 79 | 84 | 1.0 | 4.0 | 0.00 | 0.23 | 0.23 | 76 | 1010.0 |
| 20260904161524 | 79 | 86 | 0.0 | 3.0 | 0.00 | 0.23 | 0.23 | 72 | 1010.1 |
| 20260904160028 | 81 | 74 | 0.0 | 4.0 | 0.00 | 0.23 | 0.23 | 73 | 1010.0 |
| 20260904154520 | 80 | 229 | 1.0 | 4.0 | 0.00 | 0.23 | 0.23 | 74 | 1010.3 |
| 20260904153017 | 79 | 29 | 1.0 | 5.0 | 0.00 | 0.23 | 0.23 | 75 | 1010.5 |
| 20260904151513 | 77 | 11 | 1.0 | 6.0 | 0.00 | 0.23 | 0.23 | 80 | 1010.5 |
| 20260904150009 | 75 | 84 | 0.0 | 0.0 | 0.00 | 0.23 | 0.23 | 85 | 1010.5 |
| 20260904144506 | 73 | 97 | 0.0 | 0.0 | 0.00 | 0.23 | 0.23 | 91 | 1010.5 |
| 20260904143012 | 72 | 138 | 0.0 | 0.0 | 0.00 | 0.23 | 0.23 | 93 | 1010.4 |
| 20260904141503 | 72 | 138 | 0.0 | 0.0 | 0.00 | 0.23 | 0.23 | 94 | 1010.5 |
| 20260904140002 | 72 | 140 | 0.0 | 0.0 | 0.00 | 0.23 | 0.23 | 94 | 1010.4 |
| 20260904134502 | 72 | 31 | 0.0 | 0.0 | 0.00 | 0.23 | 0.23 | 94 | 1010.4 |
| 20260904133002 | 71 | 32 | 0.0 | 0.0 | 0.00 | 0.23 | 0.23 | 94 | 1010.4 |
| 20260904131601 | 71 | 29 | 0.0 | 0.0 | 0.00 | 0.23 | 0.23 | 94 | 1010.2 |
| 20260904130100 | 71 | 27 | 0.0 | 0.0 | 0.00 | 0.23 | 0.23 | 94 | 1010.3 |
| 20260904124603 | 70 | 27 | 0.0 | 0.0 | 0.00 | 0.23 | 0.23 | 94 | 1010.4 |
| 20260904123058 | 70 | 27 | 0.0 | 0.0 | 0.00 | 0.23 | 0.23 | 94 | 1010.3 |
| 20260904121557 | 69 | 27 | 0.0 | 0.0 | 0.00 | 0.23 | 0.23 | 94 | 1010.4 |
| 20260904114553 | 69 | 27 | 0.0 | 0.0 | 0.00 | 0.23 | 0.23 | 94 | 1010.3 |
| 20260904113054 | 69 | 27 | 0.0 | 0.0 | 0.00 | 0.23 | 0.23 | 94 | 1010.0 |
| 20260904111600 | 69 | 27 | 0.0 | 0.0 | 0.00 | 0.23 | 0.23 | 94 | 1009.9 |
| 20260904110051 | 68 | 31 | 0.0 | 0.0 | 0.00 | 0.23 | 0.23 | 94 | 1009.8 |
| 20260904104552 | 68 | 31 | 0.0 | 0.0 | 0.00 | 0.23 | 0.23 | 93 | 1009.8 |
| 20260904103048 | 69 | 32 | 0.0 | 0.0 | 0.00 | 0.23 | 0.23 | 93 | 1009.7 |
| 20260904101548 | 69 | 32 | 0.0 | 0.0 | 0.00 | 0.23 | 0.23 | 93 | 1009.6 |
| 20260904100047 | 69 | 32 | 0.0 | 0.0 | 0.00 | 0.23 | 0.23 | 93 | 1009.5 |
| 20260904094557 | 69 | 32 | 0.0 | 0.0 | 0.00 | 0.23 | 0.23 | 93 | 1009.2 |
| 20260904093046 | 70 | 32 | 0.0 | 0.0 | 0.00 | 0.23 | 0.23 | 93 | 1009.1 |
| 20260904091543 | 70 | 32 | 0.0 | 0.0 | 0.00 | 0.23 | 0.23 | 93 | 1009.1 |
| 20260904090042 | 70 | 32 | 0.0 | 0.0 | 0.00 | 0.23 | 0.23 | 93 | 1009.0 |
| 20260904084541 | 70 | 32 | 0.0 | 0.0 | 0.00 | 0.24 | 0.23 | 93 | 1009.1 |
| 20260904083039 | 71 | 31 | 0.0 | 0.0 | 0.01 | 0.24 | 0.23 | 93 | 1008.9 |
| 20260904081538 | 71 | 31 | 0.0 | 0.0 | 0.01 | 0.24 | 0.23 | 93 | 1008.9 |
| 20260904080040 | 71 | 31 | 0.0 | 2.0 | 0.02 | 0.24 | 0.23 | 92 | 1008.6 |
| 20260904074554 | 72 | 31 | 0.0 | 4.0 | 0.02 | 0.25 | 0.23 | 93 | 1009.1 |
| 20260904073031 | 73 | 121 | 0.0 | 0.0 | 0.01 | 0.24 | 0.22 | 93 | 1009.3 |
| 20260904071535 | 73 | 122 | 0.0 | 0.0 | 0.00 | 0.23 | 0.21 | 93 | 1009.1 |
| 20260904070030 | 73 | 122 | 0.0 | 0.0 | 0.01 | 0.23 | 0.21 | 93 | 1008.8 |
| 20260904064527 | 73 | 122 | 0.0 | 0.0 | 0.01 | 0.24 | 0.21 | 92 | 1009.1 |
| 20260904063024 | 73 | 122 | 0.0 | 0.0 | 0.01 | 0.24 | 0.21 | 92 | 1009.4 |
| 20260904061523 | 74 | 122 | 0.0 | 0.0 | 0.01 | 0.24 | 0.21 | 92 | 1009.7 |
| 20260904060021 | 74 | 122 | 0.0 | 0.0 | 0.09 | 0.23 | 0.20 | 92 | 1009.6 |
| 20260904054520 | 74 | 122 | 0.0 | 0.0 | 0.20 | 0.34 | 0.20 | 91 | 1009.8 |
| 20260904053021 | 74 | 122 | 0.0 | 0.0 | 0.20 | 0.34 | 0.20 | 91 | 1010.1 |
| 20260904051519 | 75 | 122 | 0.0 | 1.0 | 0.20 | 0.34 | 0.20 | 90 | 1010.1 |
| 20260904050012 | 76 | 123 | 0.0 | 0.0 | 0.10 | 0.24 | 0.10 | 89 | 1010.5 |
| 20260904044511 | 76 | 121 | 0.0 | 0.0 | 0.00 | 0.15 | 0.00 | 87 | 1010.4 |
| 20260904043009 | 76 | 121 | 0.0 | 0.0 | 0.00 | 0.15 | 0.00 | 87 | 1010.4 |
| 20260904041508 | 76 | 121 | 0.0 | 0.0 | 0.00 | 0.15 | 0.00 | 87 | 1010.5 |
| 20260904040007 | 76 | 121 | 0.0 | 0.0 | 0.00 | 0.15 | 0.00 | 87 | 1010.6 |
| 20260904034505 | 76 | 121 | 0.0 | 0.0 | 0.00 | 0.15 | 0.15 | 87 | 1010.6 |
| 20260904033006 | 76 | 121 | 0.0 | 0.0 | 0.00 | 0.15 | 0.15 | 86 | 1010.6 |
| 20260904031504 | 76 | 122 | 0.0 | 0.0 | 0.00 | 0.15 | 0.15 | 86 | 1010.7 |
| 20260904030003 | 76 | 122 | 0.0 | 0.0 | 0.00 | 0.15 | 0.15 | 86 | 1010.8 |
| 20260904024502 | 76 | 119 | 0.0 | 0.0 | 0.00 | 0.15 | 0.15 | 86 | 1011.0 |
| 20260904023003 | 76 | 119 | 0.0 | 0.0 | 0.00 | 0.15 | 0.15 | 87 | 1011.2 |
| 20260904021501 | 76 | 119 | 0.0 | 0.0 | 0.00 | 0.15 | 0.15 | 87 | 1011.4 |
| 20260904020001 | 75 | 119 | 0.0 | 0.0 | 0.00 | 0.15 | 0.15 | 87 | 1011.6 |
| 20260904014643 | 75 | 119 | 0.0 | 0.0 | 0.00 | 0.15 | 0.15 | 87 | 1011.7 |
| 20260904013102 | 75 | 116 | 0.0 | 0.0 | 0.00 | 0.15 | 0.15 | 86 | 1011.5 |
| 20260904011559 | 75 | 116 | 0.0 | 0.0 | 0.00 | 0.15 | 0.15 | 85 | 1011.8 |
| 20260904010058 | 76 | 109 | 0.0 | 0.0 | 0.00 | 0.15 | 0.15 | 85 | 1011.4 |
| 20260904004602 | 76 | 109 | 0.0 | 0.0 | 0.00 | 0.15 | 0.15 | 85 | 1011.6 |
| 20260904003101 | 76 | 109 | 0.0 | 0.0 | 0.00 | 0.15 | 0.15 | 85 | 1011.4 |
| 20260904001556 | 77 | 109 | 0.0 | 0.0 | 0.00 | 0.15 | 0.15 | 84 | 1011.3 |
| 20260904000138 | 77 | 109 | 0.0 | 0.0 | 0.00 | 0.15 | 0.15 | 83 | 1011.3 |
| 20260903234554 | 77 | 109 | 0.0 | 0.0 | 0.00 | 0.15 | 0.15 | 82 | 1011.1 |
| 20260903233055 | 78 | 109 | 0.0 | 0.0 | 0.00 | 0.15 | 0.15 | 82 | 1010.9 |
| 20260903231600 | 79 | 109 | 0.0 | 0.0 | 0.00 | 0.15 | 0.15 | 81 | 1010.9 |
| 20260903224555 | 80 | 109 | 0.0 | 0.0 | 0.00 | 0.15 | 0.15 | 79 | 1011.1 |
| 20260903223050 | 81 | 109 | 0.0 | 0.0 | 0.00 | 0.15 | 0.15 | 78 | 1011.3 |
| 20260903221552 | 82 | 109 | 0.0 | 0.0 | 0.00 | 0.15 | 0.15 | 75 | 1011.3 |
| 20260903220105 | 83 | 109 | 0.0 | 0.0 | 0.00 | 0.15 | 0.15 | 75 | 1011.3 |
| 20260903214552 | 84 | 109 | 0.0 | 0.0 | 0.00 | 0.15 | 0.15 | 72 | 1011.2 |
| 20260903213049 | 84 | 109 | 0.0 | 0.0 | 0.00 | 0.15 | 0.15 | 73 | 1011.2 |
| 20260903211545 | 84 | 109 | 0.0 | 0.0 | 0.00 | 0.15 | 0.15 | 73 | 1011.1 |
| 20260903210048 | 84 | 107 | 0.0 | 0.0 | 0.00 | 0.15 | 0.15 | 75 | 1011.2 |
| 20260903204541 | 83 | 105 | 0.0 | 0.0 | 0.00 | 0.15 | 0.15 | 75 | 1011.2 |
| 20260903203043 | 83 | 105 | 0.0 | 0.0 | 0.00 | 0.15 | 0.15 | 75 | 1011.3 |
| 20260903201538 | 83 | 105 | 0.0 | 0.0 | 0.00 | 0.15 | 0.15 | 75 | 1011.3 |
| 20260903200037 | 83 | 105 | 0.0 | 0.0 | 0.00 | 0.15 | 0.15 | 75 | 1011.4 |
| 20260903194546 | 83 | 105 | 0.0 | 0.0 | 0.00 | 0.20 | 0.15 | 76 | 1011.4 |
| 20260903193038 | 84 | 105 | 0.0 | 0.0 | 0.00 | 0.20 | 0.15 | 72 | 1011.6 |
| 20260903191542 | 84 | 105 | 0.0 | 2.0 | 0.00 | 0.20 | 0.15 | 73 | 1011.6 |
| 20260903190035 | 83 | 123 | 1.0 | 4.0 | 0.00 | 0.20 | 0.15 | 73 | 1011.7 |
| 20260903184530 | 84 | 213 | 0.0 | 0.0 | 0.00 | 0.44 | 0.15 | 73 | 1011.9 |
| 20260903183027 | 84 | 227 | 0.0 | 0.0 | 0.00 | 0.44 | 0.15 | 75 | 1012.0 |